Wind_Speed
19 19 19 18 19 19 19 20 18 19 19 19 19 19 18 19 19 19 19 18 17 17 17 17 18 18 19 19 20 20 20 20 21 21 21 22 22 23 24 25 26 27 27
19 19 20 20 20 19 18 18 19 19 20 20 19 19 19 19 19 19 18 18 18 17 17 18 18 18 19 20 20 20 20 21 21 21 22 22 23 24 24 26 26 27 27
19 18 19 19 20 19 18 18 19 20 20 19 19 19 19 18 19 19 19 19 18 17 17 18 18 19 20 20 20 20 20 21 21 22 22 23 23 24 25 25 26 26 27
18 18 19 18 19 18 18 18 18 19 20 19 19 19 20 20 20 20 20 19 18 18 18 19 19 19 20 20 20 21 21 22 22 22 23 23 24 24 24 25 26 26 26
17 17 17 17 17 17 18 19 20 20 19 19 19 20 21 21 21 20 19 18 18 18 18 19 20 20 20 20 20 21 22 22 23 23 24 24 24 24 24 24 25 26 26
16 16 17 16 16 17 18 18 19 19 20 19 19 20 21 21 21 19 18 18 18 18 19 20 20 20 21 21 21 22 21 22 23 23 24 24 25 24 24 24 25 26 26
16 17 18 18 18 18 18 19 19 20 20 19 19 20 20 20 20 19 18 18 18 19 20 20 20 20 21 21 22 21 21 22 22 23 24 24 25 24 24 24 24 25 25
16 17 18 19 19 19 19 19 19 19 19 19 19 19 19 19 20 19 19 19 19 19 19 20 20 20 20 21 21 22 21 22 22 23 24 24 25 24 24 24 24 24 24
17 17 18 19 19 19 19 18 18 19 19 19 19 19 19 18 18 18 18 19 19 20 20 20 20 20 20 21 21 21 22 23 23 23 23 24 24 24 24 24 24 24 23
17 17 18 18 18 18 18 19 19 18 19 19 19 19 19 18 17 16 16 18 19 20 20 20 20 21 21 21 21 21 22 23 23 23 23 24 24 23 23 23 24 23 23
16 16 17 16 16 16 17 18 18 18 18 18 18 18 17 16 15 16 17 18 18 20 20 20 19 20 20 20 21 21 22 22 23 23 23 23 23 22 22 23 23 23 23
16 16 16 15 15 15 16 17 17 17 17 16 16 16 15 15 15 16 17 17 18 19 19 19 19 18 18 19 19 20 21 21 22 22 22 22 22 22 21 22 22 23 22
15 15 15 16 16 16 16 16 16 16 15 15 14 14 13 14 14 15 16 17 17 17 18 17 17 18 17 17 17 18 20 20 21 21 22 21 22 21 21 22 22 23 22
14 14 15 15 15 15 15 15 15 15 14 14 14 13 14 14 14 14 14 14 15 16 16 17 17 17 17 17 17 18 20 20 20 21 21 22 22 22 22 22 23 23 23
13 14 14 14 14 15 14 14 14 14 14 13 13 13 13 14 14 14 13 13 14 15 15 16 15 15 16 16 16 18 19 19 20 21 22 22 22 22 22 23 23 23 23
13 12 12 13 13 12 12 12 12 12 12 12 11 12 13 13 13 13 13 13 14 15 14 14 14 15 15 16 17 18 18 19 20 21 21 21 21 22 22 22 22 22 23
11 10 11 11 11 11 10 10 10 10 10 10 10 11 11 11 11 11 11 12 13 13 13 13 14 15 16 16 17 18 18 19 20 21 21 22 22 22 22 22 22 23 23
9 8 8 8 8 9 8 8 8 9 9 10 10 11 10 10 10 9 10 11 12 13 14 14 15 16 16 17 18 18 19 19 20 21 22 22 22 23 23 23 23 24 24
7 6 6 6 6 5 5 6 6 7 8 9 9 10 9 9 8 9 10 11 12 13 13 14 15 16 17 18 18 19 19 19 20 21 21 22 23 23 23 23 24 24 25
4 4 5 4 4 4 4 5 6 6 6 7 7 8 8 8 8 9 9 10 11 12 13 13 15 16 17 17 18 19 19 20 20 21 21 22 23 23 24 24 25 25 25
4 4 4 4 4 4 4 4 5 5 5 6 6 6 6 7 8 8 9 10 11 12 13 14 15 16 17 18 19 19 19 19 20 20 21 22 23 23 24 25 26 26 25
4 3 3 3 2 2 3 3 4 4 4 5 5 5 6 6 7 9 10 11 12 12 13 14 16 17 17 18 19 19 20 21 21 22 22 23 24 25 26 26 26 26 25
3 3 3 2 1 1 2 2 3 3 3 3 4 5 6 6 7 9 9 10 11 12 14 15 16 17 18 18 19 20 21 22 22 22 23 24 25 25 26 26 26 25 25
2 2 2 1 1 1 1 2 2 3 3 3 4 5 5 7 8 9 9 10 11 13 14 15 16 16 17 18 19 19 21 22 22 23 23 24 25 26 26 26 26 26 26
2 2 1 1 1 0 1 2 2 2 3 4 4 5 6 8 8 9 10 11 12 13 14 15 16 17 17 18 19 21 22 22 23 24 25 25 26 27 27 27 27 26 26
2 2 1 1 1 1 1 2 3 2 3 4 5 6 7 8 8 9 10 11 12 13 14 16 17 17 17 19 20 22 23 24 25 26 26 27 27 27 27 27 26 26 26
Wind_Direction
270 272 272 269 268 269 269 267 266 265 267 269 273 274 278 281 281 282 284 287 289 290 291 294 296 292 290 290 290 290 292 292 291 290 290 291 292 291 290 289 287 284 282
276 274 272 269 270 268 268 265 263 263 268 270 270 273 277 279 281 281 282 286 289 290 290 291 292 294 293 291 291 291 292 292 292 291 292 292 293 294 295 294 290 286 283
273 271 269 266 266 265 267 266 264 264 267 267 268 273 279 280 281 285 287 289 289 287 287 289 290 294 295 293 291 290 292 293 293 293 292 293 295 296 297 295 292 289 287
273 270 271 266 262 261 264 263 264 268 267 268 271 276 281 284 285 287 289 292 287 285 287 289 290 293 296 294 293 295 294 294 294 294 295 295 296 297 296 295 293 291 288
272 268 267 263 262 262 262 265 269 269 269 271 274 278 281 284 286 286 287 287 288 288 291 295 291 292 294 294 295 297 296 295 295 295 294 296 297 297 297 295 293 292 291
267 265 265 264 266 267 269 271 271 270 270 272 277 279 282 283 285 284 283 286 289 288 290 294 295 291 291 293 295 296 296 297 297 297 296 297 297 298 299 296 294 293 292
268 267 266 267 269 269 271 273 271 268 268 272 275 279 281 282 284 282 284 288 291 290 289 293 295 291 289 292 295 296 297 298 298 299 299 299 299 299 299 298 296 295 294
272 269 267 268 268 268 269 272 271 269 269 272 274 278 280 281 282 280 283 286 290 291 291 294 295 294 291 292 293 295 297 299 300 301 301 302 301 300 300 299 298 296 295
274 271 267 266 266 266 268 270 270 272 273 275 275 277 279 283 283 281 283 284 287 291 292 294 296 296 294 295 295 296 297 299 302 304 304 304 303 302 301 300 299 297 296
274 270 267 267 266 265 266 269 272 273 277 276 275 277 279 281 281 281 281 284 288 289 292 293 293 293 293 295 295 298 298 299 302 305 307 306 304 303 304 302 300 298 296
271 269 266 263 265 265 267 270 271 272 275 277 276 278 281 281 282 282 284 287 290 289 292 294 294 294 295 295 297 298 298 299 301 304 307 307 305 306 305 304 302 301 299
274 270 265 263 264 265 267 270 273 273 274 276 279 279 280 281 284 288 290 290 288 289 292 293 294 298 299 299 299 299 300 300 302 304 307 307 306 306 305 305 304 303 301
277 272 266 264 265 266 266 269 272 273 275 275 277 277 280 285 288 290 291 292 292 293 295 292 297 298 300 302 302 303 304 304 304 306 306 306 307 307 307 306 305 303 301
279 274 268 267 266 267 268 267 268 269 272 273 275 279 284 289 290 290 291 294 298 296 296 297 298 299 303 305 303 305 306 307 309 309 310 308 307 309 309 307 305 303 302
283 275 269 268 267 268 268 268 269 268 268 271 274 277 283 286 287 288 294 299 301 301 301 303 303 303 306 308 308 310 310 310 312 312 311 310 309 311 311 309 306 303 302
284 277 270 269 268 267 264 266 267 269 273 273 275 280 283 283 285 291 296 299 302 305 306 309 310 311 311 311 311 312 311 312 313 313 313 313 313 313 312 311 309 306 305
291 282 275 270 266 264 263 266 266 270 274 276 278 283 284 286 291 295 298 303 307 308 311 314 315 314 314 313 313 313 314 313 313 315 315 314 314 314 314 313 311 309 308
299 289 284 279 270 262 261 263 266 269 271 275 280 283 283 289 292 299 309 312 312 311 310 313 316 318 320 319 318 318 316 314 314 314 315 315 315 315 314 313 310 308 307
296 293 293 290 289 269 259 268 275 274 272 274 280 285 288 290 296 306 314 315 314 313 313 314 316 318 319 320 320 320 319 318 317 317 317 317 317 317 314 313 312 310 309
297 299 306 293 282 270 267 274 279 278 282 283 285 288 289 292 299 309 313 316 317 316 317 318 321 322 322 322 323 323 322 321 319 318 318 317 318 319 316 315 314 313 312
309 305 308 304 291 278 271 275 283 290 293 298 297 295 291 294 303 309 314 316 320 321 322 324 324 325 326 325 323 322 323 323 321 319 320 319 319 318 317 316 314 313 312
317 312 309 307 296 284 280 287 294 297 300 305 307 307 308 311 314 317 317 318 322 324 325 327 326 326 328 327 327 326 325 325 325 323 322 321 320 321 320 319 317 316 315
323 327 321 318 303 307 306 308 318 320 321 323 323 321 321 320 321 322 323 322 323 326 327 329 329 328 328 328 329 329 329 328 327 326 325 324 321 321 323 323 322 320 318
332 325 322 331 1 9 342 344 338 346 348 340 335 331 329 326 326 327 329 329 328 328 329 330 330 330 330 331 332 333 332 332 331 330 328 326 325 325 325 325 323 321 320
327 314 296 324 348 344 336 335 341 343 343 341 337 335 335 334 333 333 333 332 332 333 334 336 336 335 336 337 336 337 336 336 335 334 331 330 329 329 328 328 326 323 322
313 310 325 340 341 348 340 348 350 343 339 339 342 342 340 343 344 342 339 339 338 338 338 339 341 340 339 339 339 338 339 339 338 336 334 333 333 332 330 328 327 325 324
Height
5834 5834 5834 5833 5833 5833 5833 5832 5832 5832 5831 5831 5831 5830 5829 5828 5827 5826 5825 5824 5822 5821 5820 5819 5818 5816 5814 5813 5811 5810 5808 5806 5804 5802 5801 5799 5796 5794 5792 5790 5787 5785 5783
5829 5829 5829 5829 5828 5828 5828 5828 5827 5827 5827 5827 5826 5825 5825 5824 5823 5822 5821 5819 5818 5817 5816 5815 5813 5812 5810 5808 5807 5805 5803 5801 5799 5797 5795 5794 5792 5788 5786 5783 5780 5778 5776
5824 5824 5824 5823 5823 5824 5823 5823 5823 5823 5822 5822 5822 5821 5820 5819 5819 5817 5816 5815 5814 5813 5812 5810 5809 5807 5806 5804 5802 5800 5798 5796 5794 5792 5790 5788 5785 5783 5780 5776 5773 5771 5769
5819 5819 5819 5818 5818 5819 5819 5818 5818 5818 5817 5817 5817 5816 5816 5815 5814 5813 5811 5810 5809 5808 5807 5806 5804 5803 5801 5799 5797 5794 5793 5791 5789 5787 5784 5782 5779 5777 5774 5771 5767 5765 5763
5814 5814 5814 5814 5814 5814 5814 5814 5814 5813 5813 5812 5812 5812 5811 5810 5809 5808 5807 5806 5805 5804 5802 5801 5799 5798 5796 5794 5793 5790 5788 5786 5783 5781 5778 5776 5773 5770 5768 5765 5761 5758 5756
5810 5810 5810 5810 5810 5810 5809 5809 5808 5808 5808 5808 5808 5807 5807 5806 5805 5803 5802 5802 5800 5799 5798 5796 5794 5793 5791 5789 5787 5785 5783 5780 5778 5775 5772 5770 5767 5764 5761 5758 5755 5752 5750
5806 5806 5806 5806 5806 5805 5805 5804 5804 5804 5803 5803 5803 5803 5802 5801 5800 5799 5797 5797 5796 5794 5793 5791 5789 5787 5785 5784 5782 5779 5777 5775 5772 5769 5766 5763 5760 5757 5755 5752 5749 5746 5743
5801 5801 5801 5801 5801 5801 5800 5800 5799 5799 5799 5798 5798 5798 5797 5796 5795 5794 5793 5792 5791 5790 5788 5786 5784 5782 5780 5779 5777 5774 5772 5769 5766 5763 5760 5757 5754 5751 5748 5745 5743 5740 5738
5797 5796 5796 5796 5796 5796 5795 5795 5795 5794 5794 5794 5793 5793 5792 5791 5789 5789 5788 5787 5786 5784 5783 5781 5779 5778 5776 5774 5771 5769 5766 5764 5761 5758 5755 5751 5748 5745 5742 5739 5736 5734 5732
5791 5791 5791 5791 5791 5791 5791 5790 5790 5790 5789 5789 5789 5788 5787 5786 5784 5784 5782 5782 5781 5779 5778 5776 5774 5772 5770 5768 5766 5763 5761 5758 5755 5752 5749 5746 5742 5739 5736 5733 5730 5727 5725
5786 5786 5786 5786 5786 5786 5786 5786 5785 5785 5785 5785 5784 5783 5782 5781 5780 5779 5778 5777 5775 5774 5773 5771 5769 5767 5765 5763 5760 5758 5755 5753 5750 5747 5744 5740 5737 5733 5730 5727 5724 5721 5719
5782 5781 5781 5781 5781 5782 5782 5781 5781 5781 5781 5780 5779 5778 5777 5776 5775 5774 5773 5772 5771 5769 5767 5766 5764 5762 5760 5757 5755 5752 5750 5747 5745 5742 5738 5735 5731 5728 5725 5721 5718 5715 5713
5777 5777 5777 5777 5777 5777 5777 5777 5777 5777 5776 5776 5775 5774 5773 5772 5771 5770 5769 5767 5766 5764 5762 5761 5759 5757 5755 5752 5750 5748 5745 5742 5739 5736 5733 5729 5726 5723 5719 5716 5713 5710 5707
5772 5772 5772 5772 5772 5773 5773 5773 5773 5773 5772 5772 5771 5771 5770 5769 5767 5766 5765 5763 5762 5760 5758 5757 5754 5752 5750 5748 5746 5743 5740 5737 5734 5731 5728 5724 5721 5718 5714 5711 5707 5704 5701
5768 5767 5767 5768 5768 5768 5768 5768 5769 5769 5768 5768 5768 5767 5766 5765 5764 5763 5761 5760 5759 5756 5754 5752 5750 5748 5745 5744 5741 5739 5736 5733 5729 5726 5723 5719 5716 5712 5709 5705 5702 5699 5696
5764 5763 5763 5764 5764 5764 5764 5765 5765 5765 5765 5764 5764 5763 5763 5762 5760 5759 5758 5757 5755 5753 5751 5749 5746 5744 5742 5739 5737 5734 5731 5728 5725 5721 5718 5714 5711 5708 5704 5700 5697 5694 5690
5761 5760 5760 5760 5760 5760 5761 5761 5761 5761 5762 5762 5761 5760 5759 5758 5758 5756 5755 5754 5752 5750 5748 5745 5743 5740 5738 5736 5733 5730 5726 5723 5720 5716 5713 5709 5706 5702 5699 5696 5692 5688 5685
5758 5758 5757 5757 5757 5757 5758 5758 5759 5759 5759 5759 5758 5757 5757 5756 5755 5753 5752 5751 5749 5747 5745 5743 5740 5737 5735 5732 5729 5725 5722 5718 5715 5712 5708 5704 5701 5697 5694 5690 5686 5683 5679
5757 5756 5756 5755 5755 5755 5756 5756 5756 5756 5756 5756 5756 5755 5754 5753 5752 5751 5749 5748 5746 5744 5742 5740 5737 5734 5731 5728 5725 5721 5717 5714 5710 5707 5703 5700 5696 5692 5688 5684 5681 5677 5673
5756 5755 5755 5754 5754 5754 5754 5755 5755 5754 5754 5754 5753 5753 5752 5751 5750 5749 5747 5745 5744 5741 5739 5737 5734 5731 5728 5725 5721 5718 5714 5710 5707 5703 5699 5695 5691 5687 5682 5678 5674 5670 5666
5755 5755 5754 5753 5753 5753 5753 5753 5753 5753 5752 5752 5751 5751 5750 5749 5748 5747 5745 5743 5741 5739 5736 5734 5731 5728 5725 5721 5718 5714 5710 5706 5702 5698 5695 5690 5686 5682 5677 5673 5668 5664 5660
5754 5754 5753 5752 5752 5752 5752 5752 5752 5751 5750 5750 5749 5749 5748 5747 5746 5745 5743 5741 5739 5736 5734 5731 5728 5725 5721 5718 5714 5710 5706 5702 5698 5694 5690 5686 5681 5676 5672 5667 5662 5658 5653
5754 5753 5753 5752 5752 5752 5751 5751 5751 5750 5749 5749 5748 5747 5746 5745 5744 5743 5741 5739 5737 5734 5731 5728 5725 5722 5718 5714 5710 5707 5703 5698 5694 5690 5685 5680 5676 5671 5666 5661 5656 5652 5647
5754 5754 5753 5752 5752 5751 5751 5751 5750 5749 5749 5748 5747 5746 5745 5744 5742 5741 5739 5737 5734 5731 5728 5725 5722 5719 5715 5711 5707 5703 5699 5694 5690 5685 5680 5675 5670 5665 5660 5655 5650 5646 5641
5754 5754 5753 5753 5752 5752 5751 5751 5750 5749 5748 5747 5746 5745 5744 5742 5741 5739 5737 5734 5732 5729 5726 5723 5720 5716 5712 5708 5704 5700 5695 5690 5685 5680 5675 5670 5665 5660 5654 5650 5644 5640 5635
5754 5754 5753 5752 5752 5751 5751 5750 5749 5749 5748 5747 5745 5744 5743 5741 5739 5737 5735 5733 5730 5727 5724 5721 5717 5714 5710 5705 5701 5696 5692 5687 5681 5676 5671 5665 5660 5654 5649 5644 5639 5634 5630